P/2000 S1 ( Skiff ) 2017

Japanese version
Home page
Updated on August 11, 2016

---------------------------------------------------------------------

* Profile

* Orbital Elements

Perturbed ephemeris below is based on elements from MPC 41716. 

 Epoch = 2457920.50000 TT   T = 2457929.11034 TT
 Peri. =  309.08958         a =     6.6277740 AU
 Node  =   28.15718 J2000.0 e =     0.6173533
 Incl. =   21.01840         q =     2.5360960 AU

* Finding Charts

* Magnitudes Graph

        m1 = 0.0 + 5 log d + 35 log r

---------------------------------------------------------------------

The orbital elements are calculated using the Minor Planet & Comet Ephemeris Service.
The charts are made with StellaNavigator Ver.10 (AstroArts).
The magnitudes graphs are made with Comet for Windows.

---------------------------------------------------------------------

Copyright(C) Seiichi Yoshida (comet@aerith.net). All rights reserved.